Location: Martin
(32.0982°N, 93.2193°W)
Time: 17:39:54
(UTC+00:00)

ARIANE 6 FM1 Upper Stage - Pass Details

Date: 21 September 2024
Orbit: 563 x 595 km, 62.0° (Epoch: 12 October)

Event Time Altitude Azimuth Distance (km) Brightness Sun altitude
Rises 00:35:27 0° 185° (S) 2,749 6.2 -5.9°
Reaches altitude 10° 00:37:54 10° 173° (S) 1,862 5.2 -6.4°
Maximum altitude 00:41:28 27° 115° (ESE) 1,109 3.6 -7.2°
Drops below altitude 10° 00:45:05 10° 57° (ENE) 1,889 4.9 -8.0°
Sets 00:47:34 0° 45° (NE) 2,798 5.8 -8.5°
